Location: Hohenfelde
(53.8441°N, 9.6220°E)
Time: 19:11:50
(UTC+00:00)

Meteor 1-5 Rocket - Visible Passes

Search period start: 25 October 2020 00:00
Search period end: 04 November 2020 00:00
Orbit: 789 x 915 km, 81.2° (Epoch: 25 October)

Date Brightness Start Highest point End Pass type
(mag) Time Alt. Az. Time Alt. Az. Time Alt. Az.
25 Oct 7.0 21:35:08 10° N 21:35:35 12° N 21:35:35 12° N visible
26 Oct 6.9 21:23:35 10° N 21:24:03 12° N 21:24:03 12° N visible
27 Oct 6.9 21:12:01 10° N 21:12:33 12° N 21:12:33 12° N visible
28 Oct 6.9 21:00:29 10° N 21:01:03 13° N 21:01:03 13° N visible
29 Oct 6.8 20:48:57 10° N 20:49:33 13° N 20:49:33 13° N visible
30 Oct 6.8 20:37:25 10° N 20:38:03 13° N 20:38:03 13° N visible
31 Oct 6.7 20:25:52 10° N 20:26:34 13° N 20:26:34 13° N visible
01 Nov 6.7 20:14:19 10° N 20:15:05 13° N 20:15:05 13° N visible
02 Nov 6.7 20:02:48 10° N 20:03:37 14° N 20:03:37 14° N visible
02 Nov 7.2 21:45:34 10° NNW 21:45:40 10° NNW 21:45:40 10° NNW visible
03 Nov 6.6 19:51:15 10° N 19:52:09 14° N 19:52:09 14° N visible
03 Nov 7.1 21:33:59 10° NNW 21:34:12 11° NNW 21:34:12 11° NNW visible
